{"data":{"norad_id":48223,"intl_designator":"2021-031P","name":"ONEWEB-0219","alt_names":[],"object_type":"PAYLOAD","status":"ACTIVE","operator":null,"country":"UK","launch_date":"2021-04-25","launch_site_code":"VOSTO","launch_vehicle":null,"mission":null,"orbit_class":"UNKNOWN","rcs_meters":null,"size_class":null,"mass_kg":null,"dimensions":null,"purposes":["comms"],"wikipedia_slug":null,"has_3d_model":false,"image_url":null,"decayed_at":null,"tle_current":{"epoch":"2026-09-19T18:17:03.077952Z","epoch_age_seconds":85780,"freshness":"FRESH","line1":"1 48223U 21031P   26262.76184118 -.00000008  00000+0 -55816-4 0  9998","line2":"2 48223  87.8901 270.8394 0001712  97.2263 262.9062 13.14502919260805","mean_motion":13.14502919,"eccentricity":0.0001712,"inclination_deg":87.8901,"raan_deg":270.8394,"arg_perigee_deg":97.2263,"mean_anomaly_deg":262.9062,"bstar":-5.5816e-5,"rev_number":26080,"period_min":109.54711314719,"perigee_km":1204.4915286514,"apogee_km":1207.0882652209,"semimajor_km":7583.9268969361,"source":"CELESTRAK","updated_at":"2026-09-20T09:00:44.594843Z"}}}